Find Starlink 3297

NORAD ID: 50159 Int'l Des: 2021-125 Owner: SPXS Country: US Constellation: starlink operational
LEOCIRCULAR

Current View

Loading 3D Globe...

About Starlink 3297

Starlink 3297 (NORAD 50159) is a starlink constellation satellite (v1.5) launched Dec 18, 2021 by SPXS of US. It operates in LEO, CIRCULAR orbit with a mass of 290.00 kg.

About Starlink 3297

Description loading...

Upcoming Passes

Passes for default location (London). Set your location on the main map for personalized predictions.

Altitude History

Loading altitude history...

Two-Line Element Set

1 50159U 21125D 26171.23500557 .00002593 00000-0 18087-3 0 9991
2 50159 53.1605 158.6743 0001283 78.4280 281.6856 15.08859529251937
Epoch: Jun 20, 2026 • Age: 24 hours

Current Status

Altitude 539.4 km
Velocity 7.59 km/s
Sub-Earth Point 11.40°N, 170.17°E
Launch Date Dec 18, 2021
Age 4.5 years
Type internet

Technical Details

Classification Payload
Mass 290.00 kg
Dry Mass 270.00 kg
Total Mass 290.00 kg
Length 0.20 m
Diameter 2.80 m
Span 9.00 m
Shape Box + pan
Manufacturer SPXS
Bus Type Starlink
Phase Status In Orbit
Owner/State SPXS/US

Most Searched